sat.trackr.live / text

‹ back to catalog

DEKART

NORAD 46493 · 2020-068H

PAYLOAD ACTIVE UNKNOWN

§ Identity

Operator
Country
CIS
Launch date
2020-09-28
Launch site
PLMSC
Launch vehicle
Mass (kg)
RCS (m²)

External: N2YO · Heavens-Above · Gunter

§ Orbital elements

Epoch: 2026-05-25T03:52:03.771264Z

Period
93.70 min
Inclination
97.8750°
Eccentricity
0.0009292
Mean motion
15.36739172 rev/d
Perigee alt
449.4 km
Apogee alt
462.1 km
Semi-major
6,833.9 km
B*
3.3022e-4
RAAN
152.7928°
Arg perigee
19.7774°
Mean anomaly
340.3828°
Rev number
31,223

§ Raw data

DEKART1 46493U 20068H   26145.16115476  .00011783  00000+0  33022-3 0  99932 46493  97.8750 152.7928 0009292  19.7774 340.3828 15.36739172312238

JSON: /api/v1/satellites/46493 · /tle

For live sub-satellite position, see the globe view (requires WebGL).

§ Visibility from observer

Set your observer location to see the next 7 days of passes ≥ 10°. The values pass through the URL so the page stays shareable.

No JS? Fill the form by hand. The geolocation button needs JavaScript.

§ Radio — SatNOGS DB

ModeDescriptionDownlinkUplink
GMSK Mode U - GMSK4k8 MOBITEX 437.000 MHz

1 transmitter · refreshed weekly from db.satnogs.org